Вернуться в каталог

STARLINK-5410

АктивенСвязьVLEO
NORAD 54807·PAYLOAD·🇺🇸 United States

Запущен Dec 17, 2022 с Cape Canaveral Space Force Station

Loading…

Ближайшие Пролёты (ближайшие 24 часа)

TLE

СвежийSource: CelesTrak SupGP

Эпоха: Sep 14, 2026, 21:41 UTC

1 54807C 22175BB  26257.90395833  .00015007  00000+0  44344-3 0  2574
2 54807  53.1582 245.6549 0001355  91.7987 343.9551 15.34379465    18

Отслеживайте STARLINK-5410 в реальном времени с AllMySat

Download on the App Store